Opa Locka, FL

3:46 AM EDT on August 31, 2016 (GMT -0400)
Opa Locka

Weather History for KOPF - October, 2011

Change the Weather History Date:

Tuesday, October 25, 2011

  Actual Average Record
Temperature  
Mean Temperature 75 °F -  
Max Temperature 84 °F 84 °F 90 °F (1980)
Min Temperature 68 °F 69 °F 58 °F (1982)
Cooling Degree Days 10    
Growing Degree Days 25 (Base 50)    
Moisture  
Dew Point 62 °F    
Average Humidity 65    
Maximum Humidity 78    
Minimum Humidity 49    
Precipitation  
Precipitation 0.00 in - - ()
Sea Level Pressure  
Sea Level Pressure 30.07 in    
Wind  
Wind Speed 10 mph (NNE)    
Max Wind Speed 18 mph    
Max Gust Speed 24 mph    
Visibility 10 miles    
Events      
Averages and records for this station are not official NWS values.
T = Trace of Precipitation, MM = Missing Value Source: NWS Daily Summary

Daily Weather History Graph

Daily Weather History Graph

Search for Another Location

Airport or City:

Trip Planner

Search our weather history database for the weather conditions in past years. The results will help you decide how hot, cold, wet, or windy it might be!

Date:

Astronomy

Oct. 25, 2011 Rise Set
Actual Time 7:25 AM EDT 6:44 PM EDT
Civil Twilight 7:01 AM EDT 7:08 PM EDT
Nautical Twilight 6:34 AM EDT 7:35 PM EDT
Astronomical Twilight 6:07 AM EDT 8:02 PM EDT
Moon 5:59 AM EDT (10/25) 5:45 PM EDT (10/25)
Length of Visible Light 12h 06m
Length of Day
11h 19m
Waning Crescent, 2% of the Moon is Illuminated
Oct 25
Waning Crescent
Oct 26
New
Nov 2
First Quarter
Nov 10
Full
Nov 18
Last Quarter

Hourly Weather History & Observations

Time (EDT) Temp. Heat Index Dew Point Humidity Pressure Visibility Wind Dir Wind Speed Gust Speed Precip Events Conditions
12:53 AM 70.0 °F - 63.0 °F 78% 30.07 in 10.0 mi North 11.5 mph - N/A   Clear
1:53 AM 70.0 °F - 62.1 °F 76% 30.06 in 10.0 mi North 11.5 mph - N/A   Clear
2:53 AM 70.0 °F - 59.0 °F 68% 30.05 in 10.0 mi North 11.5 mph - N/A   Scattered Clouds
3:53 AM 69.8 °F - 57.2 °F 64% 30.03 in 10.0 mi North 8.1 mph - N/A   Clear
4:53 AM 68.0 °F - 57.9 °F 70% 30.04 in 10.0 mi North 8.1 mph - N/A   Clear
5:53 AM 68.0 °F - 59.0 °F 73% 30.04 in 10.0 mi North 9.2 mph - N/A   Scattered Clouds
6:51 AM 68.0 °F - 60.8 °F 78% 30.05 in 10.0 mi NNW 8.1 mph - N/A   Clear
6:53 AM 68.0 °F - 60.1 °F 76% 30.05 in 10.0 mi NNW 8.1 mph - N/A   Clear
7:53 AM 68.0 °F - 61.0 °F 78% 30.07 in 10.0 mi North 5.8 mph - N/A   Clear
8:53 AM 71.1 °F - 62.1 °F 73% 30.09 in 10.0 mi North 8.1 mph - N/A   Clear
9:53 AM 77.0 °F - 64.0 °F 64% 30.10 in 10.0 mi North 8.1 mph - N/A   Clear
10:53 AM 79.0 °F - 64.9 °F 62% 30.10 in 10.0 mi NE 9.2 mph - N/A   Mostly Cloudy
11:53 AM 82.9 °F 84.0 °F 63.0 °F 51% 30.10 in 10.0 mi ENE 16.1 mph 24.2 mph N/A   Scattered Clouds
12:53 PM 82.9 °F 83.7 °F 62.1 °F 49% 30.09 in 10.0 mi East 18.4 mph 23.0 mph N/A   Mostly Cloudy
1:53 PM 82.0 °F 83.0 °F 62.1 °F 51% 30.08 in 10.0 mi NE 12.7 mph 24.2 mph N/A   Mostly Cloudy
2:53 PM 82.9 °F 84.0 °F 63.0 °F 51% 30.06 in 10.0 mi ENE 17.3 mph - N/A   Clear
3:53 PM 82.0 °F 83.0 °F 62.1 °F 51% 30.04 in 10.0 mi NE 15.0 mph - N/A   Clear
4:53 PM 80.1 °F 81.2 °F 62.1 °F 54% 30.05 in 10.0 mi ENE 12.7 mph - N/A   Partly Cloudy
5:53 PM 79.0 °F - 61.0 °F 54% 30.05 in 10.0 mi ENE 13.8 mph - N/A   Scattered Clouds
6:53 PM 77.0 °F - 61.0 °F 58% 30.06 in 10.0 mi ENE 8.1 mph - N/A   Scattered Clouds
7:53 PM 75.9 °F - 62.1 °F 62% 30.07 in 10.0 mi NE 5.8 mph - N/A   Clear
8:53 PM 75.2 °F - 64.4 °F 69% 30.07 in 10.0 mi NE 4.6 mph - N/A   Scattered Clouds
9:53 PM 75.9 °F - 64.9 °F 69% 30.07 in 10.0 mi NE 5.8 mph - N/A   Clear
10:53 PM 75.9 °F - 64.9 °F 69% 30.08 in 10.0 mi ENE 8.1 mph - N/A   Clear
11:53 PM 75.9 °F - 64.0 °F 67% 30.07 in 10.0 mi East 10.4 mph - N/A   Clear